User: anonymous
Location: Hamburg
(53.5500°N, 10.0000°E)
Time: 03:17:35
(UTC+02:00)
Language:

Iridium 10 - Orbit

View from above orbital plane
View from above orbital plane
View from above satellite
View from above satellite

Ground track
Ground track

The orbit data is extracted from the following two-line orbital elements,

1 24839U 97030D   14211.49296447  .00000148  00000-0  45937-4 0  9398
2 24839 086.3933 070.1400 0002114 100.3594 306.5912 14.34218270896070
Epoch (UTC): 30 July 2014 11:49:52
Eccentricity: 0.0002114
inclination: 86.3933°
perigee height: 776 km
apogee height: 779 km
right ascension of ascending node: 70.1400°
argument of perigee: 100.3594°
revolutions per day: 14.34218270
mean anomaly at epoch: 306.5912°
orbit number at epoch: 89607

The dashed part of the orbit path shows where the satellite is in the earth's shadow,  

DLR